| time (UTC) | temp F | wind direction | speed knots | gust knots | rain 1hr in | rain 24hr in | rain mn in | humidity % | barometer mb |
| 20260906002509 | 76 | 163 | 5.2 | 11.3 | 0.00 | 0.07 | 0.07 | 100 | 1016.1 |
| 20260906002008 | 76 | 181 | 4.3 | 11.3 | 0.00 | 0.07 | 0.07 | 100 | 1016.0 |
| 20260906001506 | 77 | 222 | 4.3 | 9.6 | 0.00 | 0.07 | 0.07 | 100 | 1016.0 |
| 20260906001005 | 78 | 246 | 4.3 | 14.8 | 0.00 | 0.07 | 0.07 | 100 | 1015.8 |
| 20260906000506 | 80 | 208 | 4.3 | 14.8 | 0.00 | 0.07 | 0.07 | 100 | 1016.1 |
| 20260906000004 | 80 | 94 | 0.0 | 1.7 | 0.00 | 0.07 | 0.07 | 100 | 1015.3 |
| 20260905235506 | 80 | 96 | 0.0 | 3.5 | 0.00 | 0.07 | 0.07 | 100 | 1015.3 |
| 20260905235004 | 80 | 44 | 0.9 | 5.2 | 0.00 | 0.07 | 0.07 | 100 | 1015.5 |
| 20260905234504 | 80 | 119 | 1.7 | 13.9 | 0.00 | 0.07 | 0.07 | 100 | 1015.7 |
| 20260905234003 | 80 | 51 | 4.3 | 13.9 | 0.00 | 0.07 | 0.07 | 100 | 1015.8 |
| 20260905233503 | 81 | 323 | 5.2 | 12.2 | 0.00 | 0.07 | 0.07 | 100 | 1015.8 |
| 20260905233003 | 81 | 97 | 0.9 | 6.1 | 0.00 | 0.07 | 0.07 | 100 | 1015.2 |
| 20260905232503 | 81 | 104 | 1.7 | 3.5 | 0.00 | 0.07 | 0.07 | 100 | 1014.8 |
| 20260905232003 | 81 | 132 | 0.0 | 3.5 | 0.00 | 0.07 | 0.07 | 100 | 1014.6 |
| 20260905231503 | 81 | 132 | 1.7 | 5.2 | 0.00 | 0.07 | 0.07 | 100 | 1014.5 |
| 20260905231002 | 81 | 153 | 1.7 | 4.3 | 0.00 | 0.07 | 0.07 | 100 | 1014.6 |
| 20260905230503 | 81 | 163 | 2.6 | 5.2 | 0.00 | 0.07 | 0.07 | 100 | 1014.6 |
| 20260905230002 | 80 | 144 | 1.7 | 5.2 | 0.00 | 0.07 | 0.07 | 100 | 1014.5 |
| 20260905225502 | 80 | 130 | 2.6 | 6.1 | 0.00 | 0.07 | 0.07 | 100 | 1014.4 |
| 20260905225002 | 80 | 117 | 1.7 | 6.1 | 0.00 | 0.07 | 0.07 | 100 | 1014.5 |
| 20260905224503 | 80 | 156 | 1.7 | 6.1 | 0.00 | 0.07 | 0.07 | 100 | 1014.8 |
| 20260905224001 | 80 | 130 | 2.6 | 6.1 | 0.00 | 0.07 | 0.07 | 100 | 1014.8 |
| 20260905223501 | 80 | 150 | 1.7 | 8.7 | 0.00 | 0.07 | 0.07 | 100 | 1014.9 |
| 20260905223002 | 79 | 109 | 2.6 | 11.3 | 0.00 | 0.07 | 0.07 | 100 | 1015.0 |
| 20260905222501 | 79 | 133 | 3.5 | 11.3 | 0.00 | 0.07 | 0.07 | 100 | 1014.7 |
| 20260905222100 | 79 | 136 | 2.6 | 7.8 | 0.00 | 0.07 | 0.07 | 100 | 1014.5 |
| 20260905221615 | 79 | 126 | 0.9 | 6.1 | 0.01 | 0.07 | 0.07 | 100 | 1014.2 |
| 20260905221102 | 79 | 122 | 1.7 | 6.1 | 0.01 | 0.07 | 0.07 | 100 | 1013.7 |
| 20260905220600 | 79 | 117 | 1.7 | 8.7 | 0.01 | 0.07 | 0.07 | 100 | 1013.6 |
| 20260905220059 | 79 | 111 | 2.6 | 8.7 | 0.01 | 0.07 | 0.07 | 100 | 1013.6 |
| 20260905215602 | 79 | 122 | 1.7 | 5.2 | 0.02 | 0.07 | 0.07 | 100 | 1013.9 |
| 20260905215058 | 79 | 98 | 0.0 | 3.5 | 0.05 | 0.07 | 0.07 | 100 | 1014.1 |
| 20260905214601 | 79 | 93 | 1.7 | 4.3 | 0.07 | 0.07 | 0.07 | 100 | 1014.1 |
| 20260905214101 | 80 | 51 | 0.9 | 4.3 | 0.07 | 0.07 | 0.07 | 100 | 1014.4 |
| 20260905213558 | 80 | 5 | 0.9 | 4.3 | 0.07 | 0.07 | 0.07 | 100 | 1014.6 |
| 20260905213105 | 80 | 217 | 0.0 | 2.6 | 0.07 | 0.07 | 0.07 | 100 | 1014.9 |
| 20260905212558 | 79 | 248 | 0.0 | 1.7 | 0.07 | 0.07 | 0.07 | 100 | 1014.8 |
| 20260905212059 | 79 | 252 | 0.9 | 4.3 | 0.07 | 0.07 | 0.07 | 100 | 1015.1 |
| 20260905211601 | 80 | 30 | 0.0 | 0.0 | 0.06 | 0.06 | 0.06 | 100 | 1015.0 |
| 20260905211057 | 80 | 30 | 0.0 | 0.0 | 0.06 | 0.06 | 0.06 | 100 | 1014.5 |
| 20260905210557 | 80 | 30 | 0.0 | 0.0 | 0.06 | 0.06 | 0.06 | 100 | 1014.6 |
| 20260905210059 | 81 | 30 | 0.0 | 3.5 | 0.06 | 0.06 | 0.06 | 100 | 1014.6 |
| 20260905205054 | 84 | 307 | 1.7 | 6.1 | 0.02 | 0.02 | 0.02 | 100 | 1014.7 |
| 20260905204555 | 85 | 233 | 2.6 | 8.7 | 0.00 | 0.00 | 0.00 | 100 | 1014.4 |
| 20260905204053 | 85 | 343 | 1.7 | 9.6 | 0.00 | 0.00 | 0.00 | 100 | 1014.5 |
| 20260905203553 | 87 | 181 | 0.9 | 12.2 | 0.00 | 0.00 | 0.00 | 100 | 1014.4 |
| 20260905203055 | 87 | 155 | 5.2 | 12.2 | 0.00 | 0.00 | 0.00 | 100 | 1014.1 |
| 20260905202654 | 87 | 150 | 3.5 | 11.3 | 0.00 | 0.00 | 0.00 | 100 | 1014.3 |
| 20260905202055 | 87 | 146 | 5.2 | 11.3 | 0.00 | 0.00 | 0.00 | 100 | 1013.9 |
| 20260905201612 | 88 | 102 | 5.2 | 12.2 | 0.00 | 0.00 | 0.00 | 100 | 1014.0 |
| 20260905201052 | 88 | 126 | 7.0 | 14.8 | 0.00 | 0.00 | 0.00 | 100 | 1013.9 |
| 20260905200552 | 88 | 119 | 7.0 | 14.8 | 0.00 | 0.00 | 0.00 | 100 | 1013.7 |
| 20260905200054 | 88 | 152 | 7.8 | 18.2 | 0.00 | 0.00 | 0.00 | 100 | 1013.3 |
| 20260905195553 | 88 | 174 | 10.4 | 18.2 | 0.00 | 0.00 | 0.00 | 100 | 1013.4 |
| 20260905195050 | 88 | 136 | 5.2 | 15.6 | 0.00 | 0.00 | 0.00 | 100 | 1013.7 |
| 20260905194550 | 88 | 153 | 6.1 | 15.6 | 0.00 | 0.00 | 0.00 | 100 | 1014.0 |
| 20260905194051 | 88 | 111 | 6.1 | 15.6 | 0.00 | 0.00 | 0.00 | 100 | 1014.1 |
| 20260905193550 | 88 | 130 | 6.1 | 15.6 | 0.00 | 0.00 | 0.00 | 100 | 1014.1 |
| 20260905193056 | 88 | 133 | 8.7 | 15.6 | 0.00 | 0.00 | 0.00 | 100 | 1014.5 |
| 20260905192546 | 89 | 105 | 6.1 | 13.0 | 0.00 | 0.00 | 0.00 | 100 | 1014.5 |
| 20260905192045 | 88 | 151 | 6.1 | 13.0 | 0.00 | 0.00 | 0.00 | 100 | 1014.3 |
| 20260905191546 | 88 | 101 | 4.3 | 13.9 | 0.00 | 0.00 | 0.00 | 100 | 1014.4 |
| 20260905191045 | 88 | 194 | 7.0 | 13.0 | 0.00 | 0.00 | 0.00 | 100 | 1014.6 |
| 20260905190545 | 90 | 153 | 6.1 | 10.4 | 0.00 | 0.00 | 0.00 | 100 | 1014.6 |
| 20260905190043 | 90 | 121 | 3.5 | 10.4 | 0.00 | 0.00 | 0.00 | 100 | 1014.6 |
| 20260905185542 | 89 | 93 | 4.3 | 10.4 | 0.00 | 0.00 | 0.00 | 100 | 1014.5 |
| 20260905185041 | 89 | 124 | 4.3 | 10.4 | 0.00 | 0.00 | 0.00 | 100 | 1014.6 |
| 20260905184544 | 89 | 116 | 3.5 | 9.6 | 0.00 | 0.03 | 0.00 | 100 | 1014.5 |
| 20260905184041 | 89 | 151 | 2.6 | 8.7 | 0.00 | 0.03 | 0.00 | 100 | 1014.4 |
| 20260905183541 | 90 | 124 | 2.6 | 8.7 | 0.00 | 0.03 | 0.00 | 100 | 1014.3 |
| 20260905183039 | 91 | 336 | 0.9 | 8.7 | 0.00 | 0.03 | 0.00 | 100 | 1014.4 |
| 20260905182537 | 92 | 111 | 1.7 | 7.8 | 0.00 | 0.03 | 0.00 | 100 | 1014.5 |
| 20260905182036 | 92 | 141 | 4.3 | 7.8 | 0.00 | 0.03 | 0.00 | 100 | 1014.6 |
| 20260905181535 | 94 | 125 | 0.9 | 5.2 | 0.00 | 0.03 | 0.00 | 100 | 1014.6 |
| 20260905181037 | 92 | 163 | 0.9 | 6.1 | 0.00 | 0.03 | 0.00 | 100 | 1014.6 |
| 20260905180530 | 94 | 195 | 0.0 | 3.5 | 0.00 | 0.03 | 0.00 | 100 | 1014.7 |
| 20260905180029 | 94 | 227 | 0.0 | 4.3 | 0.00 | 0.03 | 0.00 | 100 | 1014.8 |
| 20260905175530 | 93 | 273 | 0.9 | 7.8 | 0.00 | 0.03 | 0.00 | 100 | 1014.8 |
| 20260905175027 | 92 | 246 | 0.0 | 7.8 | 0.00 | 0.03 | 0.00 | 100 | 1014.8 |
| 20260905174525 | 94 | 298 | 0.9 | 7.0 | 0.00 | 0.03 | 0.00 | 100 | 1014.9 |
| 20260905174024 | 92 | 236 | 1.7 | 7.0 | 0.00 | 0.03 | 0.00 | 100 | 1015.0 |
| 20260905173522 | 92 | 237 | 0.9 | 7.8 | 0.00 | 0.03 | 0.00 | 100 | 1015.0 |
| 20260905173020 | 92 | 192 | 1.7 | 8.7 | 0.00 | 0.03 | 0.00 | 100 | 1015.0 |
| 20260905172519 | 92 | 241 | 4.3 | 9.6 | 0.00 | 0.03 | 0.00 | 100 | 1015.1 |
| 20260905172019 | 93 | 253 | 1.7 | 7.8 | 0.00 | 0.03 | 0.00 | 100 | 1015.1 |
| 20260905171518 | 94 | 178 | 0.0 | 11.3 | 0.00 | 0.03 | 0.00 | 100 | 1015.1 |
| 20260905171015 | 93 | 227 | 0.9 | 11.3 | 0.00 | 0.03 | 0.00 | 100 | 1015.4 |
| 20260905170513 | 93 | 240 | 0.9 | 7.0 | 0.00 | 0.03 | 0.00 | 100 | 1015.3 |
| 20260905170012 | 92 | 244 | 2.6 | 9.6 | 0.00 | 0.03 | 0.00 | 100 | 1015.4 |
| 20260905165511 | 92 | 232 | 4.3 | 9.6 | 0.00 | 0.03 | 0.00 | 100 | 1015.4 |
| 20260905165011 | 92 | 195 | 0.9 | 5.2 | 0.00 | 0.03 | 0.00 | 100 | 1015.5 |
| 20260905164507 | 93 | 240 | 1.7 | 6.1 | 0.00 | 0.03 | 0.00 | 100 | 1015.6 |
| 20260905164008 | 92 | 307 | 0.9 | 8.7 | 0.00 | 0.03 | 0.00 | 100 | 1015.6 |
| 20260905163504 | 91 | 242 | 3.5 | 10.4 | 0.00 | 0.03 | 0.00 | 100 | 1015.7 |
| 20260905163002 | 91 | 250 | 3.5 | 10.4 | 0.00 | 0.03 | 0.00 | 100 | 1015.8 |
| 20260905162501 | 91 | 288 | 0.9 | 7.8 | 0.00 | 0.03 | 0.00 | 100 | 1015.8 |
| 20260905162000 | 91 | 247 | 0.9 | 8.7 | 0.00 | 0.03 | 0.00 | 100 | 1016.0 |
| 20260905161605 | 91 | 297 | 0.9 | 8.7 | 0.00 | 0.03 | 0.00 | 100 | 1016.1 |
| 20260905161100 | 91 | 257 | 2.6 | 7.0 | 0.00 | 0.03 | 0.00 | 100 | 1016.2 |
| 20260905160600 | 91 | 167 | 1.7 | 7.0 | 0.00 | 0.03 | 0.00 | 100 | 1016.2 |
| 20260905160100 | 91 | 233 | 2.6 | 7.0 | 0.00 | 0.03 | 0.00 | 100 | 1016.2 |
| 20260905155558 | 91 | 294 | 2.6 | 7.0 | 0.00 | 0.03 | 0.00 | 100 | 1016.2 |
| 20260905155056 | 90 | 227 | 3.5 | 8.7 | 0.00 | 0.03 | 0.00 | 100 | 1016.3 |
| 20260905154616 | 89 | 244 | 3.5 | 9.6 | 0.00 | 0.03 | 0.00 | 100 | 1016.3 |
| 20260905154056 | 88 | 244 | 3.5 | 11.3 | 0.00 | 0.03 | 0.00 | 100 | 1016.4 |
| 20260905153552 | 88 | 246 | 5.2 | 11.3 | 0.00 | 0.03 | 0.00 | 100 | 1016.5 |
| 20260905153052 | 88 | 211 | 1.7 | 7.8 | 0.00 | 0.03 | 0.00 | 100 | 1016.5 |
| 20260905152551 | 89 | 238 | 2.6 | 10.4 | 0.00 | 0.03 | 0.00 | 100 | 1016.6 |
| 20260905152047 | 89 | 252 | 4.3 | 10.4 | 0.00 | 0.03 | 0.00 | 100 | 1016.6 |
| 20260905151546 | 88 | 232 | 2.6 | 6.1 | 0.00 | 0.03 | 0.00 | 100 | 1016.5 |
| 20260905151043 | 88 | 150 | 0.9 | 6.1 | 0.00 | 0.03 | 0.00 | 100 | 1016.7 |
| 20260905150542 | 88 | 221 | 1.7 | 10.4 | 0.00 | 0.03 | 0.00 | 100 | 1016.6 |
| 20260905150040 | 88 | 188 | 3.5 | 10.4 | 0.00 | 0.03 | 0.00 | 100 | 1016.7 |
| 20260905145539 | 88 | 235 | 0.0 | 9.6 | 0.00 | 0.03 | 0.00 | 100 | 1016.6 |
| 20260905145037 | 88 | 226 | 2.6 | 7.8 | 0.00 | 0.03 | 0.00 | 100 | 1016.6 |
| 20260905144536 | 88 | 231 | 1.7 | 7.0 | 0.00 | 0.03 | 0.00 | 100 | 1016.5 |
| 20260905144035 | 87 | 191 | 0.9 | 8.7 | 0.00 | 0.03 | 0.00 | 100 | 1016.5 |
| 20260905143533 | 86 | 202 | 3.5 | 8.7 | 0.00 | 0.03 | 0.00 | 100 | 1016.6 |
| 20260905143033 | 86 | 216 | 1.7 | 8.7 | 0.00 | 0.03 | 0.00 | 100 | 1016.6 |
| 20260905142529 | 86 | 219 | 2.6 | 11.3 | 0.00 | 0.03 | 0.00 | 100 | 1016.6 |
| 20260905142028 | 86 | 234 | 5.2 | 11.3 | 0.00 | 0.03 | 0.00 | 100 | 1016.6 |
| 20260905141533 | 86 | 225 | 0.9 | 7.0 | 0.00 | 0.03 | 0.00 | 100 | 1016.5 |
| 20260905141026 | 86 | 177 | 3.5 | 7.8 | 0.00 | 0.03 | 0.00 | 100 | 1016.5 |
| 20260905140523 | 86 | 159 | 2.6 | 6.1 | 0.00 | 0.03 | 0.00 | 100 | 1016.6 |
| 20260905140024 | 86 | 184 | 1.7 | 6.1 | 0.00 | 0.03 | 0.00 | 100 | 1016.7 |
| 20260905135520 | 85 | 212 | 1.7 | 7.0 | 0.00 | 0.03 | 0.00 | 100 | 1016.8 |
| 20260905135021 | 85 | 185 | 1.7 | 7.0 | 0.00 | 0.03 | 0.00 | 100 | 1016.7 |
| 20260905134517 | 85 | 215 | 0.9 | 4.3 | 0.00 | 0.03 | 0.00 | 100 | 1016.6 |
| 20260905134016 | 84 | 236 | 0.9 | 6.1 | 0.00 | 0.03 | 0.00 | 100 | 1016.7 |
| 20260905133516 | 84 | 188 | 0.9 | 6.1 | 0.00 | 0.03 | 0.00 | 100 | 1016.6 |
| 20260905133016 | 84 | 229 | 1.7 | 4.3 | 0.00 | 0.03 | 0.00 | 100 | 1016.6 |
| 20260905132514 | 84 | 218 | 0.9 | 6.1 | 0.00 | 0.03 | 0.00 | 100 | 1016.6 |
| 20260905132013 | 83 | 200 | 0.9 | 4.3 | 0.00 | 0.03 | 0.00 | 100 | 1016.6 |
| 20260905131513 | 83 | 207 | 1.7 | 4.3 | 0.00 | 0.03 | 0.00 | 100 | 1016.6 |
| 20260905131012 | 83 | 232 | 0.9 | 3.5 | 0.00 | 0.03 | 0.00 | 100 | 1016.6 |
| 20260905130514 | 83 | 202 | 0.0 | 4.3 | 0.00 | 0.03 | 0.00 | 100 | 1016.7 |
| 20260905130012 | 82 | 253 | 1.7 | 5.2 | 0.00 | 0.03 | 0.00 | 100 | 1016.6 |
| 20260905125511 | 82 | 224 | 0.0 | 2.6 | 0.00 | 0.03 | 0.00 | 100 | 1016.7 |
| 20260905125011 | 82 | 223 | 0.0 | 2.6 | 0.00 | 0.03 | 0.00 | 100 | 1016.7 |
| 20260905124511 | 81 | 221 | 0.0 | 0.0 | 0.00 | 0.03 | 0.00 | 100 | 1016.7 |
| 20260905124010 | 81 | 225 | 0.0 | 2.6 | 0.00 | 0.03 | 0.00 | 100 | 1016.6 |
| 20260905123511 | 81 | 225 | 0.0 | 2.6 | 0.00 | 0.03 | 0.00 | 100 | 1016.7 |
| 20260905123016 | 80 | 225 | 0.0 | 3.5 | 0.00 | 0.03 | 0.00 | 100 | 1016.7 |
| 20260905122513 | 80 | 223 | 0.0 | 3.5 | 0.00 | 0.03 | 0.00 | 100 | 1016.6 |
| 20260905122010 | 79 | 222 | 0.0 | 3.5 | 0.00 | 0.03 | 0.00 | 100 | 1016.6 |
| 20260905121510 | 79 | 207 | 0.0 | 0.0 | 0.00 | 0.03 | 0.00 | 100 | 1016.7 |
| 20260905121010 | 79 | 207 | 0.0 | 0.0 | 0.00 | 0.03 | 0.00 | 100 | 1016.7 |
| 20260905120512 | 79 | 207 | 0.0 | 0.0 | 0.00 | 0.03 | 0.00 | 100 | 1016.4 |
| 20260905120009 | 79 | 207 | 0.0 | 0.0 | 0.00 | 0.03 | 0.00 | 100 | 1016.5 |
| 20260905115509 | 79 | 207 | 0.0 | 0.0 | 0.00 | 0.03 | 0.00 | 100 | 1016.5 |
| 20260905115009 | 79 | 207 | 0.0 | 0.0 | 0.00 | 0.03 | 0.00 | 100 | 1016.4 |
| 20260905114510 | 79 | 207 | 0.0 | 0.0 | 0.00 | 0.03 | 0.00 | 100 | 1016.3 |
| 20260905114009 | 79 | 207 | 0.0 | 0.0 | 0.00 | 0.03 | 0.00 | 100 | 1016.3 |
| 20260905113509 | 79 | 207 | 0.0 | 0.0 | 0.00 | 0.03 | 0.00 | 100 | 1016.2 |
| 20260905113008 | 79 | 207 | 0.0 | 0.0 | 0.00 | 0.03 | 0.00 | 100 | 1016.1 |
| 20260905112509 | 79 | 207 | 0.0 | 0.0 | 0.00 | 0.03 | 0.00 | 100 | 1016.1 |
| 20260905112013 | 79 | 207 | 0.0 | 0.0 | 0.00 | 0.03 | 0.00 | 100 | 1016.1 |
| 20260905111508 | 79 | 207 | 0.0 | 0.0 | 0.00 | 0.03 | 0.00 | 100 | 1016.0 |
| 20260905111007 | 78 | 207 | 0.0 | 0.0 | 0.00 | 0.03 | 0.00 | 100 | 1016.0 |
| 20260905110511 | 78 | 207 | 0.0 | 0.0 | 0.00 | 0.03 | 0.00 | 100 | 1015.9 |
| 20260905110008 | 79 | 207 | 0.0 | 0.0 | 0.00 | 0.03 | 0.00 | 100 | 1015.9 |
| 20260905105506 | 79 | 207 | 0.0 | 0.0 | 0.00 | 0.03 | 0.00 | 100 | 1015.9 |
| 20260905105009 | 78 | 206 | 0.0 | 0.0 | 0.00 | 0.03 | 0.00 | 100 | 1015.7 |
| 20260905104506 | 79 | 206 | 0.0 | 0.0 | 0.00 | 0.03 | 0.00 | 100 | 1015.7 |
| 20260905104010 | 78 | 206 | 0.0 | 0.0 | 0.00 | 0.03 | 0.00 | 100 | 1015.6 |
| 20260905103505 | 78 | 206 | 0.0 | 0.0 | 0.00 | 0.03 | 0.00 | 100 | 1015.6 |
| 20260905103004 | 78 | 206 | 0.0 | 0.0 | 0.00 | 0.03 | 0.00 | 100 | 1015.6 |
| 20260905102505 | 79 | 206 | 0.0 | 0.0 | 0.00 | 0.03 | 0.00 | 100 | 1015.6 |
| 20260905102009 | 79 | 206 | 0.0 | 0.0 | 0.00 | 0.03 | 0.00 | 100 | 1015.7 |
| 20260905101502 | 79 | 206 | 0.0 | 0.0 | 0.00 | 0.03 | 0.00 | 100 | 1015.7 |
| 20260905101002 | 79 | 206 | 0.0 | 0.0 | 0.00 | 0.03 | 0.00 | 100 | 1015.6 |
| 20260905100502 | 79 | 206 | 0.0 | 0.0 | 0.00 | 0.03 | 0.00 | 100 | 1015.6 |
| 20260905100004 | 79 | 206 | 0.0 | 0.0 | 0.00 | 0.03 | 0.00 | 100 | 1015.5 |
| 20260905095501 | 79 | 206 | 0.0 | 0.0 | 0.00 | 0.03 | 0.00 | 100 | 1015.5 |
| 20260905095003 | 79 | 206 | 0.0 | 0.0 | 0.00 | 0.03 | 0.00 | 100 | 1015.7 |
| 20260905094500 | 79 | 206 | 0.0 | 0.0 | 0.00 | 0.03 | 0.00 | 100 | 1015.6 |
| 20260905094001 | 79 | 206 | 0.0 | 0.0 | 0.00 | 0.03 | 0.00 | 100 | 1015.6 |
| 20260905093501 | 79 | 206 | 0.0 | 0.0 | 0.00 | 0.03 | 0.00 | 100 | 1015.7 |
| 20260905093001 | 79 | 206 | 0.0 | 0.0 | 0.00 | 0.03 | 0.00 | 100 | 1015.7 |
| 20260905092602 | 79 | 206 | 0.0 | 0.0 | 0.00 | 0.03 | 0.00 | 100 | 1015.7 |
| 20260905092100 | 79 | 206 | 0.0 | 0.0 | 0.00 | 0.03 | 0.00 | 100 | 1015.6 |
| 20260905091636 | 79 | 206 | 0.0 | 0.0 | 0.00 | 0.03 | 0.00 | 100 | 1015.5 |
| 20260905091101 | 79 | 206 | 0.0 | 0.0 | 0.00 | 0.03 | 0.00 | 100 | 1015.6 |
| 20260905090600 | 79 | 206 | 0.0 | 0.0 | 0.00 | 0.03 | 0.00 | 100 | 1015.7 |
| 20260905090100 | 79 | 206 | 0.0 | 0.0 | 0.00 | 0.03 | 0.00 | 100 | 1015.6 |
| 20260905085600 | 79 | 206 | 0.0 | 0.0 | 0.00 | 0.03 | 0.00 | 100 | 1015.5 |
| 20260905085059 | 79 | 206 | 0.0 | 0.0 | 0.00 | 0.03 | 0.00 | 100 | 1015.5 |
| 20260905084613 | 79 | 205 | 0.0 | 0.0 | 0.00 | 0.03 | 0.00 | 100 | 1015.6 |
| 20260905084059 | 79 | 205 | 0.0 | 0.9 | 0.00 | 0.03 | 0.00 | 100 | 1015.6 |
| 20260905083559 | 79 | 205 | 0.0 | 1.7 | 0.00 | 0.03 | 0.00 | 100 | 1015.5 |
| 20260905083059 | 79 | 205 | 0.0 | 1.7 | 0.00 | 0.03 | 0.00 | 100 | 1015.5 |
| 20260905082558 | 79 | 208 | 0.0 | 1.7 | 0.00 | 0.03 | 0.00 | 100 | 1015.5 |
| 20260905082059 | 79 | 209 | 0.0 | 1.7 | 0.00 | 0.03 | 0.00 | 100 | 1015.5 |
| 20260905081558 | 79 | 209 | 0.0 | 0.0 | 0.00 | 0.03 | 0.00 | 100 | 1015.6 |
| 20260905081057 | 79 | 210 | 0.0 | 0.0 | 0.00 | 0.03 | 0.00 | 100 | 1015.6 |
| 20260905080558 | 79 | 210 | 0.0 | 0.0 | 0.00 | 0.03 | 0.00 | 100 | 1015.6 |
| 20260905080106 | 79 | 210 | 0.0 | 0.0 | 0.00 | 0.03 | 0.00 | 100 | 1015.6 |
| 20260905075557 | 79 | 210 | 0.0 | 0.0 | 0.00 | 0.03 | 0.00 | 100 | 1015.6 |
| 20260905075101 | 79 | 209 | 0.0 | 0.0 | 0.00 | 0.03 | 0.00 | 100 | 1015.7 |
| 20260905074614 | 79 | 209 | 0.0 | 0.9 | 0.00 | 0.03 | 0.00 | 100 | 1015.6 |
| 20260905074057 | 79 | 209 | 0.0 | 1.7 | 0.00 | 0.03 | 0.00 | 100 | 1015.7 |
| 20260905073655 | 79 | 209 | 0.0 | 1.7 | 0.00 | 0.03 | 0.00 | 100 | 1015.8 |
| 20260905073055 | 79 | 209 | 0.0 | 1.7 | 0.00 | 0.03 | 0.00 | 100 | 1015.7 |
| 20260905072556 | 79 | 209 | 0.0 | 1.7 | 0.00 | 0.03 | 0.00 | 100 | 1015.7 |
| 20260905072054 | 80 | 209 | 0.0 | 0.0 | 0.00 | 0.03 | 0.00 | 100 | 1015.7 |
| 20260905071555 | 80 | 209 | 0.0 | 0.9 | 0.00 | 0.03 | 0.00 | 100 | 1015.5 |
| 20260905071054 | 80 | 209 | 0.0 | 1.7 | 0.00 | 0.03 | 0.00 | 100 | 1015.6 |
| 20260905070553 | 80 | 209 | 0.0 | 1.7 | 0.00 | 0.03 | 0.00 | 100 | 1015.7 |
| 20260905070107 | 80 | 209 | 0.0 | 1.7 | 0.00 | 0.03 | 0.00 | 100 | 1015.7 |
| 20260905065552 | 80 | 209 | 0.0 | 1.7 | 0.00 | 0.03 | 0.00 | 100 | 1015.8 |
| 20260905065051 | 80 | 209 | 0.0 | 1.7 | 0.00 | 0.03 | 0.00 | 100 | 1015.8 |
| 20260905064551 | 80 | 209 | 0.0 | 1.7 | 0.00 | 0.03 | 0.00 | 100 | 1015.8 |
| 20260905064051 | 80 | 209 | 0.0 | 2.6 | 0.00 | 0.03 | 0.00 | 100 | 1015.8 |
| 20260905063550 | 80 | 209 | 0.0 | 2.6 | 0.00 | 0.03 | 0.00 | 100 | 1015.9 |
| 20260905063049 | 80 | 208 | 0.0 | 0.0 | 0.00 | 0.03 | 0.00 | 100 | 1016.0 |
| 20260905062549 | 80 | 208 | 0.0 | 0.0 | 0.00 | 0.03 | 0.00 | 100 | 1016.1 |
| 20260905062049 | 80 | 208 | 0.0 | 0.0 | 0.00 | 0.03 | 0.00 | 100 | 1016.1 |
| 20260905061600 | 80 | 208 | 0.0 | 0.0 | 0.00 | 0.03 | 0.00 | 100 | 1016.1 |
| 20260905061048 | 81 | 208 | 0.0 | 0.0 | 0.00 | 0.03 | 0.00 | 100 | 1016.2 |
| 20260905060547 | 81 | 208 | 0.0 | 0.0 | 0.00 | 0.03 | 0.00 | 100 | 1016.2 |
| 20260905060047 | 81 | 208 | 0.0 | 0.0 | 0.00 | 0.03 | 0.00 | 100 | 1016.2 |
| 20260905055545 | 81 | 208 | 0.0 | 0.0 | 0.00 | 0.03 | 0.00 | 100 | 1016.5 |
| 20260905055044 | 81 | 208 | 0.0 | 0.0 | 0.00 | 0.03 | 0.00 | 100 | 1016.5 |
| 20260905054550 | 81 | 208 | 0.0 | 0.0 | 0.00 | 0.03 | 0.00 | 100 | 1016.6 |
| 20260905054044 | 81 | 208 | 0.0 | 0.0 | 0.00 | 0.03 | 0.00 | 100 | 1016.7 |
| 20260905053542 | 81 | 208 | 0.0 | 0.0 | 0.00 | 0.03 | 0.00 | 100 | 1016.7 |
| 20260905053045 | 81 | 208 | 0.0 | 0.0 | 0.00 | 0.03 | 0.00 | 100 | 1016.8 |
| 20260905052540 | 81 | 208 | 0.0 | 0.0 | 0.00 | 0.03 | 0.00 | 100 | 1016.9 |
| 20260905052043 | 82 | 208 | 0.0 | 0.0 | 0.00 | 0.03 | 0.00 | 100 | 1017.0 |
| 20260905051544 | 82 | 208 | 0.0 | 0.0 | 0.00 | 0.03 | 0.00 | 100 | 1017.0 |
| 20260905051039 | 82 | 208 | 0.0 | 0.0 | 0.00 | 0.03 | 0.00 | 100 | 1017.0 |
| 20260905050541 | 82 | 207 | 0.0 | 0.0 | 0.00 | 0.03 | 0.00 | 100 | 1017.1 |
| 20260905050045 | 82 | 207 | 0.0 | 0.0 | 0.00 | 0.03 | 0.00 | 100 | 1017.2 |
| 20260905045540 | 82 | 207 | 0.0 | 0.0 | 0.00 | 0.03 | 0.00 | 100 | 1017.3 |
| 20260905045038 | 82 | 207 | 0.0 | 0.0 | 0.00 | 0.03 | 0.00 | 100 | 1017.1 |
| 20260905044540 | 82 | 207 | 0.0 | 0.0 | 0.00 | 0.03 | 0.00 | 100 | 1017.2 |
| 20260905044041 | 82 | 207 | 0.0 | 0.0 | 0.00 | 0.03 | 0.00 | 100 | 1017.1 |
| 20260905043537 | 82 | 207 | 0.0 | 0.0 | 0.00 | 0.03 | 0.00 | 100 | 1017.1 |
| 20260905043039 | 82 | 207 | 0.0 | 0.0 | 0.00 | 0.03 | 0.00 | 100 | 1017.1 |
| 20260905042540 | 82 | 207 | 0.0 | 0.0 | 0.00 | 0.03 | 0.00 | 100 | 1017.0 |
| 20260905042035 | 82 | 205 | 0.0 | 0.0 | 0.00 | 0.03 | 0.00 | 100 | 1017.1 |
| 20260905041541 | 82 | 159 | 0.0 | 1.7 | 0.00 | 0.03 | 0.00 | 100 | 1017.1 |
| 20260905041035 | 83 | 159 | 0.0 | 4.3 | 0.00 | 0.03 | 0.00 | 100 | 1017.1 |
| 20260905040535 | 83 | 135 | 0.0 | 6.1 | 0.00 | 0.03 | 0.00 | 100 | 1017.1 |
| 20260905040036 | 83 | 163 | 1.7 | 6.1 | 0.00 | 0.03 | 0.00 | 100 | 1017.0 |
| 20260905035535 | 83 | 167 | 0.9 | 4.3 | 0.00 | 0.03 | 0.00 | 100 | 1017.1 |
| 20260905035033 | 82 | 162 | 0.9 | 4.3 | 0.00 | 0.03 | 0.00 | 100 | 1017.2 |
| 20260905034538 | 83 | 166 | 0.9 | 4.3 | 0.00 | 0.03 | 0.03 | 100 | 1017.2 |
| 20260905034032 | 83 | 166 | 1.7 | 4.3 | 0.00 | 0.03 | 0.03 | 100 | 1017.3 |
| 20260905033534 | 83 | 165 | 0.9 | 4.3 | 0.00 | 0.03 | 0.03 | 100 | 1017.3 |
| 20260905033043 | 83 | 164 | 0.9 | 4.3 | 0.00 | 0.03 | 0.03 | 100 | 1017.2 |
| 20260905032533 | 83 | 161 | 0.9 | 4.3 | 0.00 | 0.03 | 0.03 | 100 | 1017.1 |
| 20260905032032 | 83 | 161 | 0.9 | 4.3 | 0.00 | 0.03 | 0.03 | 100 | 1017.1 |
| 20260905031539 | 83 | 162 | 0.9 | 4.3 | 0.00 | 0.03 | 0.03 | 100 | 1017.1 |
| 20260905031034 | 83 | 163 | 1.7 | 4.3 | 0.00 | 0.03 | 0.03 | 100 | 1017.1 |
| 20260905030532 | 83 | 166 | 0.9 | 3.5 | 0.00 | 0.03 | 0.03 | 100 | 1017.1 |
| 20260905030039 | 83 | 184 | 0.9 | 2.6 | 0.00 | 0.03 | 0.03 | 100 | 1017.1 |
| 20260905025532 | 83 | 185 | 0.9 | 3.5 | 0.00 | 0.03 | 0.03 | 100 | 1017.2 |
| 20260905025031 | 83 | 187 | 0.9 | 3.5 | 0.00 | 0.03 | 0.03 | 100 | 1017.1 |
| 20260905024531 | 83 | 192 | 0.0 | 1.7 | 0.00 | 0.03 | 0.03 | 100 | 1017.0 |
| 20260905024030 | 83 | 192 | 0.0 | 2.6 | 0.00 | 0.03 | 0.03 | 100 | 1016.9 |
| 20260905023531 | 83 | 194 | 0.9 | 2.6 | 0.00 | 0.03 | 0.03 | 100 | 1017.0 |
| 20260905023033 | 83 | 194 | 0.0 | 1.7 | 0.00 | 0.03 | 0.03 | 100 | 1017.1 |
| 20260905022534 | 83 | 194 | 0.0 | 1.7 | 0.00 | 0.03 | 0.03 | 100 | 1017.0 |
| 20260905022033 | 83 | 194 | 0.0 | 1.7 | 0.00 | 0.03 | 0.03 | 100 | 1017.1 |
| 20260905021531 | 83 | 194 | 0.9 | 1.7 | 0.00 | 0.03 | 0.03 | 100 | 1017.2 |
| 20260905021032 | 83 | 195 | 0.0 | 1.7 | 0.00 | 0.03 | 0.03 | 100 | 1017.2 |
| 20260905020631 | 83 | 195 | 0.0 | 1.7 | 0.00 | 0.03 | 0.03 | 100 | 1017.2 |
| 20260905020030 | 84 | 194 | 0.0 | 2.6 | 0.00 | 0.03 | 0.03 | 100 | 1017.2 |
| 20260905015529 | 84 | 194 | 0.0 | 2.6 | 0.00 | 0.03 | 0.03 | 100 | 1017.1 |
| 20260905015033 | 84 | 194 | 0.0 | 0.0 | 0.00 | 0.03 | 0.03 | 100 | 1017.1 |
| 20260905014529 | 84 | 194 | 0.0 | 0.0 | 0.00 | 0.03 | 0.03 | 100 | 1017.1 |
| 20260905014028 | 84 | 194 | 0.0 | 0.0 | 0.00 | 0.03 | 0.03 | 100 | 1017.0 |
| 20260905013532 | 84 | 194 | 0.0 | 0.0 | 0.00 | 0.03 | 0.03 | 100 | 1017.0 |
| 20260905013028 | 84 | 194 | 0.0 | 0.0 | 0.00 | 0.03 | 0.03 | 100 | 1017.0 |
| 20260905012528 | 84 | 194 | 0.0 | 1.7 | 0.00 | 0.03 | 0.03 | 100 | 1017.0 |
| 20260905012029 | 84 | 194 | 0.0 | 1.7 | 0.00 | 0.03 | 0.03 | 100 | 1017.1 |
| 20260905011528 | 84 | 194 | 0.0 | 1.7 | 0.00 | 0.03 | 0.03 | 100 | 1017.1 |
| 20260905011028 | 84 | 192 | 0.0 | 1.7 | 0.00 | 0.03 | 0.03 | 100 | 1017.0 |
| 20260905010529 | 84 | 192 | 0.0 | 3.5 | 0.00 | 0.03 | 0.03 | 100 | 1017.1 |
| 20260905010028 | 84 | 191 | 0.9 | 3.5 | 0.00 | 0.03 | 0.03 | 100 | 1016.9 |
| 20260905005528 | 85 | 186 | 0.9 | 2.6 | 0.00 | 0.03 | 0.03 | 100 | 1016.9 |
| 20260905005027 | 85 | 221 | 0.9 | 3.5 | 0.00 | 0.03 | 0.03 | 100 | 1016.9 |
| 20260905004528 | 85 | 192 | 0.9 | 4.3 | 0.00 | 0.03 | 0.03 | 100 | 1016.8 |
| 20260905004030 | 85 | 191 | 0.9 | 7.0 | 0.00 | 0.03 | 0.03 | 100 | 1016.8 |
| 20260905003530 | 85 | 200 | 1.7 | 7.0 | 0.00 | 0.03 | 0.03 | 100 | 1016.9 |
| 20260905003027 | 85 | 167 | 3.5 | 7.0 | 0.00 | 0.03 | 0.03 | 100 | 1016.9 |